Hourly Weather Roundup
Issued by NWS Central Illinois

Home | Current Version | Previous Version | Text Only | Print | Product List | Glossary On
Versions: 1 2 3 4 5 6 7 8 9 10 11 12 13 14 15 16 17 18 19 20 21 22 23 24 25 26 27 28 29 30 31 32 33 34 35 36 37 38 39 40 41 42 43 44 45 46 47 48 49 50
000
NZUS43 KILX 202210
HWRILX

Area Weather Roundup
National Weather Service Lincoln IL
500 PM CDT FRI APR 20 2018

NOTE:  "FAIR" indicates few or no clouds below 12,000 feet, with
       no sigificant weather and/or obstructions to visibility.


CITY           SKY/WX    TMP DP  RH WIND       PRES   REMARKS
Bloomington    FAIR      60  21  22 E13       30.42F
Champaign      FAIR      61  20  20 E9        30.41F
Danville       FAIR      59  23  24 NE8       30.40F
Decatur        FAIR      62  17  17 E9        30.40F
Effingham      FAIR      62  28  27 E5        30.41F
Flora          FAIR      64  21  20 NE7       30.40F
Galesburg      FAIR      64  23  21 SE6       30.40F
Jacksonville   CLOUDY    60  22  22 E8        30.38F
Lacon          FAIR      62  23  22 SE6       30.40F
Lawrenceville  FAIR      65  17  15 NE5       30.40S
Litchfield     CLOUDY    60  23  23 E8        30.39F
$$


CITY           SKY/WX    TMP DP  RH WIND       PRES   REMARKS
Lincoln        FAIR      62  20  20 E7        30.41F
Macomb         MOSUNNY   60  19  20 E12G17    30.41F
Mattoon        FAIR      60  21  22 E7        30.39F
Mt Carmel AP   FAIR      63  17  17 E9        30.40S
Olney-Noble AP FAIR      62  11  13 E9        30.40F
Paris AP       FAIR      59  26  27 E3        30.42F
Peoria         FAIR      61  22  22 S6        30.41F
Pontiac        FAIR      61  18  18 E3        30.43F
Rantoul        FAIR      61  22  22 NE7       30.42F
Robinson       FAIR      62  25  24 NE9       30.41F
Springfield    FAIR      63  19  18 E13       30.40F
Taylorville    FAIR      61  18  19 E12G17    30.40S
$$

...REGIONAL REPORTS...


CITY           SKY/WX    TMP DP  RH WIND       PRES   REMARKS
Chicago O`Hare FAIR      59  16  18 E13       30.44S
Kankakee       FAIR      61  21  21 E3        30.44F
La Salle       FAIR      63  18  17 SE3       30.42F
Moline         FAIR      63  17  17 E10       30.39F
Mount Sterling CLOUDY    60  20  21 SE8       30.37F
Mount Vernon   FAIR      61  25  25 NE13      30.39F
Pittsfield     CLOUDY    60  22  23 E9        30.38F
Quincy         CLOUDY    59  18  20 SE12      30.37F
Rockford       PTSUNNY   60  19  20 CALM      30.44F
$$


CITY           SKY/WX    TMP DP  RH WIND       PRES   REMARKS
Burlington     CLOUDY    60  19  20 E12       30.38F
Cedar Rapids   FAIR      59  21  23 S8        30.37F
Des Moines     CLOUDY    59  27  29 E9        30.34F
Kirksville     MOSUNNY   61  22  22 SE14      30.33F
Ottumwa        CLOUDY    59  23  25 E9        30.35F
St Louis       CLOUDY    61  22  22 E14G21    30.38F
$$


CITY           SKY/WX    TMP DP  RH WIND       PRES   REMARKS
Terre Haute    FAIR      61  22  22 E9        30.41F
Evansville     FAIR      63  22  20 E6        30.38F
Indianapolis   FAIR      59  19  21 NE5       30.42S
Lafayette      FAIR      59  19  21 NE8       30.42F
Madison        PTSUNNY   55  25  31 NE12      30.43F
Milwaukee      PTSUNNY   51  27  39 SE9       30.46F
$$






USA.gov is the U.S. government's official web portal to all federal, state and local government web resources and services.